TimePST,TemperatureF,Dew PointF,Humidity,Sea Level PressureIn,VisibilityMPH,Wind Direction,Wind SpeedMPH,Gust SpeedMPH,PrecipitationIn,Events,Conditions,WindDirDegrees,DateUTC
12:53 AM,42.1,30.9,65,30.35,10.0,WSW,10.4,-,N/A,,Overcast,250,2013-02-24 08:53:00
1:53 AM,41.0,30.9,67,30.35,10.0,Calm,Calm,-,N/A,,Overcast,0,2013-02-24 09:53:00
2:53 AM,39.9,32.0,73,30.35,10.0,SSW,4.6,-,N/A,,Overcast,200,2013-02-24 10:53:00
3:53 AM,39.2,32.0,75,30.32,10.0,Calm,Calm,-,N/A,,Overcast,0,2013-02-24 11:53:00
4:53 AM,39.0,33.1,79,30.32,10.0,Calm,Calm,-,N/A,,Overcast,0,2013-02-24 12:53:00
5:53 AM,39.9,33.1,77,30.29,10.0,ESE,3.5,-,N/A,,Overcast,120,2013-02-24 13:53:00
6:53 AM,39.0,33.1,79,30.28,10.0,Calm,Calm,-,N/A,,Overcast,0,2013-02-24 14:53:00
7:53 AM,39.9,34.0,79,30.27,10.0,Calm,Calm,-,N/A,,Overcast,0,2013-02-24 15:53:00
8:53 AM,42.1,36.0,79,30.26,10.0,Calm,Calm,-,N/A,,Overcast,0,2013-02-24 16:53:00
9:53 AM,44.1,35.1,71,30.25,10.0,Calm,Calm,-,N/A,,Overcast,0,2013-02-24 17:53:00
10:53 AM,44.1,34.0,68,30.23,10.0,Variable,3.5,-,N/A,,Overcast,0,2013-02-24 18:53:00
11:53 AM,45.0,36.0,71,30.21,10.0,Variable,3.5,-,N/A,,Overcast,0,2013-02-24 19:53:00
12:53 PM,45.0,37.0,74,30.19,10.0,North,4.6,-,N/A,,Overcast,350,2013-02-24 20:53:00
1:53 PM,48.9,36.0,61,30.14,10.0,East,4.6,-,N/A,,Overcast,100,2013-02-24 21:53:00
2:53 PM,45.0,37.0,74,30.12,10.0,NNE,4.6,-,N/A,,Mostly Cloudy,30,2013-02-24 22:53:00
3:53 PM,46.0,37.0,71,30.09,10.0,ESE,3.5,-,N/A,,Overcast,110,2013-02-24 23:53:00
4:53 PM,45.0,37.0,74,30.06,10.0,NNE,3.5,-,N/A,,Overcast,20,2013-02-25 00:53:00
5:53 PM,43.0,37.0,80,30.01,10.0,South,3.5,-,0.00,,Mostly Cloudy,170,2013-02-25 01:53:00
6:53 PM,41.0,37.0,86,29.97,10.0,ENE,4.6,-,N/A,,Mostly Cloudy,70,2013-02-25 02:53:00
7:53 PM,39.0,36.0,89,29.94,10.0,South,3.5,-,N/A,,Clear,170,2013-02-25 03:53:00
8:53 PM,37.9,35.1,89,29.91,10.0,SW,3.5,-,N/A,,Mostly Cloudy,220,2013-02-25 04:53:00
9:53 PM,42.1,37.0,82,29.87,10.0,Variable,3.5,-,0.00,Rain,Light Rain,0,2013-02-25 05:53:00
10:53 PM,41.0,37.0,86,29.85,10.0,Calm,Calm,-,0.00,Rain,Light Rain,0,2013-02-25 06:53:00
11:53 PM,42.1,39.9,92,29.83,8.0,Calm,Calm,-,0.00,Rain,Light Rain,0,2013-02-25 07:53:00